"2010-11-15 00:00:00",337261,5.419,165.5,2.774,0.873,6.98,100.5899,0.805,1.984,46.42,0,109.6,13.54,1.56,127.5
"2010-11-15 00:00:30",337262,4.382,158.7,6.759,1.248,4.043,100.5891,0.803,1.758,45.88,0,109.6,13.53,1.56,120.7
"2010-11-15 00:01:00",337263,4.131,158.4,6.344,1.215,3.841,100.5894,0.803,1.805,45.52,0,109.6,13.53,1.56,120.4
"2010-11-15 00:01:30",337264,3.237,151.4,0.561,0.036,2.285,100.5903,0.806,1.668,45.04,0,109.6,13.57,1.56,113.4
"2010-11-15 00:02:00",337265,4.955,159.1,5.56,1.2,6.189,100.5914,0.808,1.899,45.22,0,109.6,13.54,1.56,121.1
"2010-11-15 00:02:30",337266,5.282,159,4.627,1.002,6.57,100.5948,0.817,1.941,45.64,0,109.6,13.54,1.57,121.0
"2010-11-15 00:03:00",337267,5.522,158.9,4.331,0.657,7.422,100.5954,0.819,1.97,46.06,0,109.7,13.54,1.57,120.9
"2010-11-15 00:03:30",337268,4.636,154.5,7.1,1.209,5.328,100.5939,0.815,1.904,46.37,0,109.6,13.54,1.57,116.5
"2010-11-15 00:04:00",337269,4.092,150.1,6.518,1.214,3.919,100.588,0.8,1.796,46.63,0,109.6,13.54,1.55,112.1
"2010-11-15 00:04:30",337270,3.13,145.2,0.246,0.035,2.039,100.5809,0.782,1.685,47.18,0,109.6,13.58,1.54,107.2
"2010-11-15 00:05:00",337271,4.272,152,6.787,1.23,4.93,100.5784,0.775,1.872,46.98,0,109.6,13.54,1.53,114.0
"2010-11-15 00:05:30",337272,5.12,156.7,4.462,0.868,6.713,100.5818,0.784,1.971,46.28,0,109.6,13.55,1.54,118.7
"2010-11-15 00:06:00",337273,5.316,155.8,4.938,0.859,6.74,100.5854,0.793,1.955,46.47,0,109.6,13.55,1.55,117.8
"2010-11-15 00:06:30",337274,5.438,155.6,4.946,0.946,6.659,100.5852,0.793,1.951,47.62,0,109.6,13.55,1.55,117.6
"2010-11-15 00:07:00",337275,5.303,153.2,5.455,1.058,5.644,100.5801,0.78,1.878,47.86,0,109.6,13.55,1.53,115.2
"2010-11-15 00:07:30",337276,3.928,143.7,4.47,1.03,3.517,100.5804,0.78,1.828,46.4,0,109.6,13.55,1.54,105.7
"2010-11-15 00:08:00",337277,4.674,145.6,6.018,1.22,4.304,100.5872,0.798,1.749,44.47,0,109.6,13.55,1.55,107.6
"2010-11-15 00:08:30",337278,4.09,143.2,6.456,1.387,4.542,100.5962,0.821,1.844,44.08,0,109.6,13.55,1.58,105.2
"2010-11-15 00:09:00",337279,4.433,156.7,19.83,0.856,7.026,100.6089,0.853,2.036,44.44,0,109.6,13.55,1.61,118.7
"2010-11-15 00:09:30",337280,4.141,154.5,17.21,1.124,6.24,100.6214,0.885,1.977,44.14,0,109.6,13.55,1.64,116.5
"2010-11-15 00:10:00",337281,3.833,143.4,5.62,1.014,3.855,100.6268,0.899,1.882,45.91,0,109.6,13.55,1.65,105.4
"2010-11-15 00:10:30",337282,4.073,145.9,5.117,1.173,3.276,100.6129,0.863,1.763,47.53,0,109.6,13.55,1.62,107.9
"2010-11-15 00:11:00",337283,4.369,148.4,6.07,1.238,4.607,100.6129,0.863,1.966,48.09,0,109.6,13.56,1.62,110.4
"2010-11-15 00:11:30",337284,5.095,152.4,5.826,1.053,5.677,100.6027,0.837,1.951,48.41,0,109.6,13.56,1.59,114.4
"2010-11-15 00:12:00",337285,5.138,152.6,6.345,1.129,6.207,100.5838,0.789,2.014,48.36,0,109.6,13.56,1.54,114.6
"2010-11-15 00:12:30",337286,4.901,158.1,7.716,1.165,6.415,100.5968,0.822,1.965,45.63,0,109.5,13.56,1.58,120.1
"2010-11-15 00:13:00",337287,3.173,178.6,13.74,1.504,5.364,100.6277,0.901,1.891,45.58,0,109.6,13.56,1.66,140.6
"2010-11-15 00:13:30",337288,3.548,193.2,7.887,1.148,5.172,100.6606,0.985,1.918,45.82,0,109.5,13.56,1.74,155.2
"2010-11-15 00:14:00",337289,4.186,178,6.952,1.207,6.155,100.6906,1.061,2.041,46.38,0,109.5,13.56,1.82,140.0
"2010-11-15 00:14:30",337290,2.48,177.2,7.484,1.134,4.427,100.716,1.126,2.06,46.14,0,109.5,13.56,1.88,139.2
"2010-11-15 00:15:00",337291,3.279,173.2,7.548,1.331,5.029,100.733,1.17,1.962,43.89,0,109.6,13.56,1.93,135.2
"2010-11-15 00:15:30",337292,2.989,193.7,9.8,1.367,5.211,100.7362,1.178,2.138,45.89,0,109.6,13.55,1.93,155.7
"2010-11-15 00:16:00",337293,2.256,184,13.58,1.171,3.89,100.7645,1.25,2.093,46.14,0,109.6,13.55,2.01,146.0
"2010-11-15 00:16:30",337294,2.147,172.5,15.98,0.684,2.825,100.7721,1.269,2.143,44.72,0,109.6,13.55,2.03,134.5
"2010-11-15 00:17:00",337295,3.523,164.7,8.26,1.352,4.918,100.7727,1.271,2.208,44.84,0,109.6,13.55,2.03,126.7
"2010-11-15 00:17:30",337296,3.885,163.6,9.37,1.218,5.014,100.7727,1.271,2.275,44.64,0,109.6,13.56,2.03,125.6
"2010-11-15 00:18:00",337297,3.945,174.1,6.705,1.288,5.496,100.7744,1.275,2.184,44.14,0,109.6,13.55,2.03,136.1
"2010-11-15 00:18:30",337298,4,164.3,7.548,1.261,4.248,100.7719,1.269,2.255,43.97,0,109.6,13.56,2.03,126.3
"2010-11-15 00:19:00",337299,4.117,165.3,8.45,1.111,4.97,100.7461,1.203,2.265,43.23,0,109.6,13.56,1.96,127.3
"2010-11-15 00:19:30",337300,3.832,162.8,8.15,1.354,4.229,100.7416,1.192,2.051,44.32,0,109.6,13.55,1.95,124.8
"2010-11-15 00:20:00",337301,4.225,160.1,6.759,1.239,5.184,100.7331,1.17,2.174,43.88,0,109.6,13.56,1.93,122.1
"2010-11-15 00:20:30",337302,4.305,159.8,6.838,1.203,5.049,100.7116,1.115,2.206,44.4,0,109.6,13.56,1.87,121.8
"2010-11-15 00:21:00",337303,3.853,156.4,6.727,1.212,4.432,100.711,1.114,2.08,42.52,0,109.6,13.56,1.87,118.4
"2010-11-15 00:21:30",337304,3.81,156.2,5.039,1.171,4.298,100.6975,1.079,2.173,43.85,0,109.6,13.56,1.83,118.2
"2010-11-15 00:22:00",337305,3.979,154.6,6.316,1.225,4.43,100.6788,1.031,2.117,45.73,0,109.6,13.56,1.79,116.6
"2010-11-15 00:22:30",337306,4.399,156.6,6.516,1.2,4.963,100.6694,1.007,2.003,45.91,0,109.6,13.56,1.76,118.6
"2010-11-15 00:23:00",337307,5.291,160.3,3.514,0.941,6.668,100.649,0.955,2.116,47.72,0,109.6,13.56,1.71,122.3
"2010-11-15 00:23:30",337308,4.978,156.6,5.016,1.123,5.844,100.6352,0.92,2.094,48.94,0,109.6,13.56,1.68,118.6
"2010-11-15 00:24:00",337309,4.293,154.9,6.547,1.231,4.653,100.6111,0.859,1.997,49.38,0,109.6,13.56,1.61,116.9
"2010-11-15 00:24:30",337310,4.057,153.3,5.926,1.192,3.65,100.5975,0.824,1.86,49.48,0,109.6,13.56,1.58,115.3
"2010-11-15 00:25:00",337311,4.559,156.7,6.477,1.272,5.095,100.5789,0.776,1.933,49.94,0,109.6,13.56,1.53,118.7
"2010-11-15 00:25:30",337312,5.156,160.8,5.952,1.118,5.934,100.5684,0.75,1.826,49.86,0,109.6,13.57,1.50,122.8
"2010-11-15 00:26:00",337313,5.51,162.4,4.937,0.917,6.613,100.5494,0.701,1.879,49.95,0,109.6,13.57,1.46,124.4
"2010-11-15 00:26:30",337314,5.354,159.5,5.565,1.1,5.712,100.5435,0.686,1.921,49.99,0,109.6,13.57,1.44,121.5
"2010-11-15 00:27:00",337315,4.812,156,6.444,1.221,4.414,100.5435,0.686,1.729,49.98,0,109.6,13.56,1.44,118.0
"2010-11-15 00:27:30",337316,4.534,154.1,6.088,1.237,3.878,100.5435,0.686,1.761,50.1,0,109.6,13.56,1.44,116.1
"2010-11-15 00:28:00",337317,4.617,152.4,6.302,1.14,4.11,100.5435,0.686,1.639,49.93,0,109.6,13.57,1.44,114.4
"2010-11-15 00:28:30",337318,5.637,156.2,5.299,1.114,6.714,100.5432,0.686,1.879,50.09,0,109.6,13.57,1.44,118.2
"2010-11-15 00:29:00",337319,5.714,160.5,2.726,0.84,7.355,100.5432,0.686,1.858,48.64,0,109.6,13.57,1.44,122.5
"2010-11-15 00:29:30",337320,4.19,152.4,6.099,1.213,4.988,100.5435,0.686,1.787,46.38,0,109.6,13.57,1.44,114.4
"2010-11-15 00:30:00",337321,3.945,152.7,6.301,1.216,4.066,100.5681,0.749,1.721,45.13,0,109.6,13.57,1.50,114.7
"2010-11-15 00:30:30",337322,3.45,154.2,6.394,1.074,3.849,100.5811,0.782,1.774,44.72,0,109.6,13.57,1.54,116.2
"2010-11-15 00:31:00",337323,3.264,151.6,5.94,0.991,3.898,100.6049,0.843,1.803,44.59,0,109.6,13.57,1.60,113.6
"2010-11-15 00:31:30",337324,4.864,163.4,4.9,0.557,7.576,100.6114,0.86,1.956,44.88,0,109.6,13.57,1.61,125.4
"2010-11-15 00:32:00",337325,4.692,165.3,4.521,0.582,7.449,100.6224,0.888,2.009,45.37,0,109.6,13.56,1.64,127.3
"2010-11-15 00:32:30",337326,4.075,166.7,5.163,1.171,5.926,100.6434,0.941,1.967,45.58,0,109.6,13.56,1.70,128.7
"2010-11-15 00:33:00",337327,2.867,161,5.244,0.98,2.849,100.6468,0.95,1.871,46.37,0,109.6,13.56,1.71,123.0
"2010-11-15 00:33:30",337328,3.523,168.3,5.468,1.183,3.89,100.659,0.981,1.849,46.38,0,109.6,13.56,1.74,130.3
"2010-11-15 00:34:00",337329,3.125,165.4,5.472,1.026,3.46,100.6692,1.007,1.908,46.46,0,109.6,13.56,1.76,127.4
"2010-11-15 00:34:30",337330,4.624,174.7,6.95,1.19,6.218,100.6765,1.026,2.099,46.37,0,109.6,13.56,1.78,136.7
"2010-11-15 00:35:00",337331,5.208,181.4,4.283,0.774,7.833,100.6793,1.033,2.149,46.57,0,109.6,13.57,1.79,143.4
"2010-11-15 00:35:30",337332,4.915,180.7,5.256,0.965,7.215,100.6793,1.033,2.17,46.89,0,109.6,13.56,1.79,142.7
"2010-11-15 00:36:00",337333,3.85,170.1,6.221,1.228,4.383,100.6793,1.033,2.001,46.5,0,109.6,13.57,1.79,132.1
"2010-11-15 00:36:30",337334,2.742,165.3,1.869,0.065,2.074,100.6793,1.033,1.881,46.23,0,109.6,13.57,1.79,127.3
"2010-11-15 00:37:00",337335,3.288,169.5,5.724,1.004,2.907,100.6793,1.033,1.873,46.24,0,109.6,13.57,1.79,131.5
"2010-11-15 00:37:30",337336,4.497,176.2,6.116,1.178,5.798,100.6793,1.033,2.1,46.55,0,109.6,13.57,1.79,138.2
"2010-11-15 00:38:00",337337,5.159,181.7,2.798,0.865,7.552,100.6793,1.033,2.221,46.7,0,109.6,13.57,1.79,143.7
"2010-11-15 00:38:30",337338,5.225,182.9,4.233,0.95,7.102,100.6793,1.033,2.173,46.82,0,109.6,13.57,1.79,144.9
"2010-11-15 00:39:00",337339,4.19,177.8,7.494,1.138,3.918,100.6793,1.033,1.989,46.62,0,109.6,13.57,1.79,139.8
"2010-11-15 00:39:30",337340,3.725,173.7,4.857,0.87,3.076,100.6793,1.033,2.042,46.41,0,109.6,13.57,1.79,135.7
"2010-11-15 00:40:00",337341,4.273,177.8,6.563,1.2,3.455,100.6793,1.033,1.93,46.27,0,109.6,13.57,1.79,139.8
"2010-11-15 00:40:30",337342,4.552,179.5,6.401,1.216,4.602,100.6793,1.033,2.052,46.49,0,109.6,13.58,1.79,141.5
"2010-11-15 00:41:00",337343,5.752,187.1,5.215,0.413,7.633,100.6793,1.033,2.213,46.78,0,109.6,13.58,1.79,149.1
"2010-11-15 00:41:30",337344,5.609,187.6,3.289,0.757,7.425,100.6796,1.034,2.255,46.74,0,109.6,13.58,1.79,149.6
"2010-11-15 00:42:00",337345,4.913,180.1,5.739,1.186,5.872,100.6796,1.034,2.147,46.54,0,109.6,13.57,1.79,142.1
"2010-11-15 00:42:30",337346,3.625,172.7,3.482,0.635,2.268,100.6793,1.033,1.943,46.09,0,109.6,13.57,1.79,134.7
"2010-11-15 00:43:00",337347,4.356,178.1,7.021,1.3,4.104,100.6808,1.036,1.992,46.27,0,109.6,13.57,1.79,140.1
"2010-11-15 00:43:30",337348,4.959,183.8,6.324,1.175,5.664,100.6811,1.037,2.121,46.55,0,109.6,13.58,1.79,145.8
"2010-11-15 00:44:00",337349,5.479,185.1,4.313,0.717,7.491,100.6816,1.039,2.255,46.86,0,109.6,13.58,1.79,147.1
"2010-11-15 00:44:30",337350,5.544,181.7,3.468,0.69,7.493,100.6816,1.039,2.239,46.63,0,109.6,13.58,1.79,143.7
"2010-11-15 00:45:00",337351,4.506,176,7.25,1.243,5.906,100.6825,1.041,2.21,46.36,0,109.6,13.58,1.80,138.0
"2010-11-15 00:45:30",337352,3.855,174.9,3.878,1.022,3.251,100.6816,1.039,1.932,46.1,0,109.6,13.58,1.79,136.9
"2010-11-15 00:46:00",337353,4.374,178.4,7.297,1.232,4.165,100.6822,1.04,2.063,46.11,0,109.6,13.58,1.80,140.4
"2010-11-15 00:46:30",337354,4.557,178.7,6.586,1.169,4.944,100.6836,1.044,2.122,45.85,0,109.6,13.58,1.80,140.7
"2010-11-15 00:47:00",337355,5.507,183,4.135,1.004,6.738,100.6842,1.045,2.099,45.29,0,109.6,13.58,1.80,145.0
"2010-11-15 00:47:30",337356,5.915,187.3,4.472,0.421,7.301,100.6856,1.049,2.226,45.42,0,109.6,13.58,1.80,149.3
"2010-11-15 00:48:00",337357,5.312,182.1,5.597,1.098,6.34,100.6856,1.049,2.146,44.99,0,109.6,13.57,1.80,144.1
"2010-11-15 00:48:30",337358,4.921,179.8,6.701,1.256,5.113,100.6862,1.05,2.014,44.68,0,109.6,13.57,1.81,141.8
"2010-11-15 00:49:00",337359,4.084,175.6,4.832,1.04,3.827,100.6865,1.051,2.068,44.81,0,109.6,13.57,1.81,137.6
"2010-11-15 00:49:30",337360,4.785,175.1,6.327,1.2,4.543,100.687,1.052,2.06,44.33,0,109.6,13.57,1.81,137.1
"2010-11-15 00:50:00",337361,5.393,179.9,8.44,1.22,6.045,100.6896,1.059,2.135,44.86,0,109.6,13.57,1.81,141.9
"2010-11-15 00:50:30",337362,5.785,182.3,4.154,0.784,7.123,100.6887,1.057,2.237,45.46,0,109.6,13.57,1.81,144.3
"2010-11-15 00:51:00",337363,5.123,179.6,5.673,1.17,5.82,100.6908,1.062,2.09,44.97,0,109.6,13.57,1.82,141.6
"2010-11-15 00:51:30",337364,4.096,172.4,5.495,1.031,3.794,100.6896,1.059,2.036,44.81,0,109.6,13.57,1.81,134.4
"2010-11-15 00:52:00",337365,4.673,175.1,6.99,1.207,4.467,100.6922,1.066,2.051,44.7,0,109.6,13.57,1.82,137.1
"2010-11-15 00:52:30",337366,4.362,176.3,6.525,1.202,3.733,100.691,1.063,2.017,45.28,0,109.6,13.57,1.82,138.3
"2010-11-15 00:53:00",337367,5.105,176.6,6.178,1.248,5.585,100.6927,1.067,2.132,45.19,0,109.6,13.57,1.82,138.6
"2010-11-15 00:53:30",337368,5.512,181.2,5.884,1.161,6.062,100.6962,1.076,2.148,45.07,0,109.6,13.58,1.83,143.2
"2010-11-15 00:54:00",337369,4.457,177.7,6.571,1.27,4.408,100.6939,1.07,2.101,45.41,0,109.6,13.58,1.83,139.7
"2010-11-15 00:54:30",337370,5.228,178.9,6.417,1.113,5.667,100.6962,1.076,2.088,45.31,0,109.6,13.58,1.83,140.9
"2010-11-15 00:55:00",337371,3.817,174.2,4.398,0.918,2.97,100.6947,1.072,2.045,44.83,0,109.5,13.58,1.83,136.2
"2010-11-15 00:55:30",337372,5.097,183.4,5.763,1.14,5.277,100.6959,1.075,2.008,45.04,0,109.6,13.58,1.83,145.4
"2010-11-15 00:56:00",337373,4.629,179.7,5.629,1.205,4.901,100.693,1.068,2.15,45.45,0,109.6,13.58,1.82,141.7
"2010-11-15 00:56:30",337374,4.462,179.1,6.757,1.266,4.439,100.6925,1.066,2.049,45.32,0,109.6,13.59,1.82,141.1
"2010-11-15 00:57:00",337375,5.227,181.7,5.883,1.103,6.127,100.695,1.073,2.185,45.4,0,109.6,13.59,1.83,143.7
"2010-11-15 00:57:30",337376,4.909,180.4,6.414,1.241,5.452,100.6939,1.07,2.177,45.15,0,109.6,13.59,1.83,142.4
"2010-11-15 00:58:00",337377,4.64,181,5.742,1.151,4.591,100.699,1.083,2.129,45.33,0,109.6,13.59,1.84,143.0
"2010-11-15 00:58:30",337378,4.589,182.1,5.958,1.157,3.796,100.7004,1.087,2.119,45.33,0,109.6,13.59,1.84,144.1
"2010-11-15 00:59:00",337379,5.564,187.5,6.376,1.114,5.413,100.6999,1.085,2.107,45.17,0,109.6,13.59,1.84,149.5
"2010-11-15 00:59:30",337380,4.974,188.4,6.933,1.188,5.022,100.7047,1.097,2.167,45.42,0,109.6,13.59,1.85,150.4
"2010-11-15 01:00:00",337381,4.85,193.8,7.866,1.349,5.24,100.7347,1.174,2.195,45.82,0,109.6,13.59,1.93,155.8
"2010-11-15 01:00:30",337382,5.396,194.7,6.445,1.059,6.068,100.7381,1.183,2.261,45.43,0,109.6,13.59,1.94,156.7
"2010-11-15 01:01:00",337383,4.481,183.8,6.189,1.226,4.164,100.7387,1.184,2.126,44.51,0,109.6,13.59,1.94,145.8
"2010-11-15 01:01:30",337384,4.953,187.5,7.124,1.26,4.732,100.7378,1.182,2.182,44.38,0,109.6,13.59,1.94,149.5
"2010-11-15 01:02:00",337385,5.325,187.1,6.357,1.124,5.217,100.7384,1.183,2.184,44.31,0,109.6,13.59,1.94,149.1
"2010-11-15 01:02:30",337386,4.708,185.2,5.9,1.24,3.875,100.7384,1.183,2.096,44.06,0,109.6,13.59,1.94,147.2
"2010-11-15 01:03:00",337387,5.016,183.8,6.664,1.17,4.719,100.7378,1.182,2.187,43.97,0,109.6,13.59,1.94,145.8
"2010-11-15 01:03:30",337388,4.874,184.2,5.8,1.206,5.328,100.739,1.185,2.239,44.02,0,109.6,13.59,1.94,146.2
"2010-11-15 01:04:00",337389,5.288,187.4,5.955,1.076,5.371,100.7387,1.184,2.159,44.04,0,109.6,13.59,1.94,149.4
"2010-11-15 01:04:30",337390,5.272,187.8,5.494,1.228,5.522,100.7387,1.184,2.279,43.98,0,109.6,13.58,1.94,149.8
"2010-11-15 01:05:00",337391,5.328,189.1,5.938,1.084,5.433,100.7393,1.186,2.22,43.91,0,109.6,13.58,1.94,151.1
"2010-11-15 01:05:30",337392,4.197,184.1,5.247,1.036,3.364,100.739,1.185,2.147,43.93,0,109.6,13.58,1.94,146.1
"2010-11-15 01:06:00",337393,3.998,188.9,4.941,1.225,3.688,100.7393,1.186,2.104,43.95,0,109.6,13.58,1.94,150.9
"2010-11-15 01:06:30",337394,4.918,197,6.151,1.137,6.021,100.7393,1.186,2.253,44.25,0,109.6,13.58,1.94,159.0
"2010-11-15 01:07:00",337395,4.647,198.2,6.839,1.253,5.145,100.739,1.185,2.078,44.48,0,109.6,13.58,1.94,160.2
"2010-11-15 01:07:30",337396,5.146,200.7,5.791,1.125,6.33,100.739,1.185,2.281,44.78,0,109.6,13.58,1.94,162.7
"2010-11-15 01:08:00",337397,5.119,200.7,5.735,1.124,6.018,100.7444,1.199,2.276,44.52,0,109.6,13.58,1.95,162.7
"2010-11-15 01:08:30",337398,3.778,191.3,3.787,0.931,2.911,100.7478,1.207,2.103,44.15,0,109.6,13.58,1.96,153.3
"2010-11-15 01:09:00",337399,4.579,195,6.857,1.214,4.526,100.7514,1.217,2.175,44.08,0,109.6,13.58,1.97,157.0
"2010-11-15 01:09:30",337400,5.111,192.8,5.345,1.323,5.285,100.7472,1.206,2.223,43.81,0,109.6,13.58,1.96,154.8
"2010-11-15 01:10:00",337401,4.833,198.4,9.16,1.306,5.194,100.7441,1.198,2.204,43.95,0,109.6,13.59,1.95,160.4
"2010-11-15 01:10:30",337402,5.661,203.5,5.056,0.95,6.764,100.7455,1.202,2.3,44.07,0,109.6,13.59,1.96,165.5
"2010-11-15 01:11:00",337403,5.154,197.9,7.34,1.162,5.649,100.7412,1.191,2.258,43.7,0,109.6,13.59,1.95,159.9
"2010-11-15 01:11:30",337404,4.616,195.3,6.28,1.139,4.022,100.7412,1.191,2.175,43.77,0,109.6,13.59,1.95,157.3
"2010-11-15 01:12:00",337405,4.614,197.8,5.747,1.217,4.311,100.7444,1.199,2.171,44.54,0,109.6,13.59,1.95,159.8
"2010-11-15 01:12:30",337406,5.079,199.6,6.63,1.277,5.126,100.7529,1.22,2.222,44.58,0,109.6,13.59,1.98,161.6
"2010-11-15 01:13:00",337407,5.218,204.5,7.556,1.218,6.292,100.769,1.261,2.322,45.12,0,109.6,13.59,2.02,166.5
"2010-11-15 01:13:30",337408,5.825,206.7,5.138,0.969,7.18,100.7735,1.273,2.366,45.08,0,109.6,13.59,2.03,168.7
"2010-11-15 01:14:00",337409,5.959,205.2,4.691,0.826,7.181,100.7744,1.275,2.387,44.5,0,109.6,13.59,2.03,167.2
"2010-11-15 01:14:30",337410,5.492,202.7,6.299,1.142,6.052,100.7729,1.272,2.343,44.35,0,109.6,13.59,2.03,164.7
"2010-11-15 01:15:00",337411,4.34,196,5.053,0.801,3.291,100.7747,1.276,2.236,44.24,0,109.6,13.59,2.03,158.0
"2010-11-15 01:15:30",337412,5.922,206.3,6.357,1.026,5.98,100.7738,1.274,2.199,44,0,109.6,13.59,2.03,168.3
"2010-11-15 01:16:00",337413,5.228,204.5,7.213,1.262,5.728,100.7752,1.277,2.298,44.04,0,109.6,13.59,2.03,166.5
"2010-11-15 01:16:30",337414,6.206,205.7,5.585,0.854,7.24,100.7735,1.273,2.407,43.76,0,109.6,13.59,2.03,167.7
"2010-11-15 01:17:00",337415,6.058,207.7,4.301,0.852,7.354,100.7735,1.273,2.415,44.18,0,109.6,13.59,2.03,169.7
"2010-11-15 01:17:30",337416,6.114,207,5.448,0.898,6.842,100.773,1.272,2.355,44.33,0,109.6,13.59,2.03,169.0
"2010-11-15 01:18:00",337417,4.565,200.6,4.995,0.937,3.159,100.7769,1.282,2.23,44.19,0,109.6,13.59,2.04,162.6
"2010-11-15 01:18:30",337418,5.296,211.8,6.214,1.221,4.944,100.7749,1.277,2.236,45.16,0,109.6,13.59,2.03,173.8
"2010-11-15 01:19:00",337419,6.016,219.1,7.97,1.278,6.286,100.7781,1.285,2.328,45.82,0,109.6,13.59,2.04,181.1
"2010-11-15 01:19:30",337420,6.12,224,6.296,0.974,7.667,100.8024,1.347,2.418,46.05,0,109.6,13.59,2.10,186.0
"2010-11-15 01:20:00",337421,6.505,226.7,4.065,0.781,8.07,100.8109,1.368,2.488,46.43,0,109.6,13.59,2.13,188.7
"2010-11-15 01:20:30",337422,6.4,228.8,5.463,0.786,7.648,100.8364,1.433,2.535,46.65,0,109.6,13.58,2.19,190.8
"2010-11-15 01:21:00",337423,5.591,226.2,4.866,1.301,5.549,100.846,1.458,2.422,46.46,0,109.6,13.58,2.22,188.2
"2010-11-15 01:21:30",337424,4.269,223.5,3.129,0.313,3.174,100.8585,1.49,2.376,46.4,0,109.6,13.62,2.25,185.5
"2010-11-15 01:22:00",337425,5.091,223.9,8.81,1.283,4.615,100.8792,1.543,2.473,46.37,0,109.6,13.58,2.30,185.9
"2010-11-15 01:22:30",337426,5.848,235.5,6.393,1.051,6.836,100.88,1.545,2.557,46.42,0,109.6,13.58,2.30,197.5
"2010-11-15 01:23:00",337427,6.296,235.9,5.395,0.956,7.964,100.8814,1.548,2.629,46.45,0,109.5,13.58,2.31,197.9
"2010-11-15 01:23:30",337428,6.416,231,4.703,0.675,8.06,100.8913,1.574,2.684,46.32,0,109.6,13.58,2.33,193.0
"2010-11-15 01:24:00",337429,5.658,232.8,8.04,1.066,6.497,100.9041,1.606,2.63,46.15,0,109.6,13.58,2.36,194.8
"2010-11-15 01:24:30",337430,3.788,219.5,5.239,0.293,2.899,100.9106,1.623,2.402,45.55,0,109.6,13.62,2.38,181.5
"2010-11-15 01:25:00",337431,5.171,228.7,6.264,1.266,4.685,100.9069,1.613,2.55,45.97,0,109.6,13.58,2.37,190.7
"2010-11-15 01:25:30",337432,5.64,226.4,7.174,1.191,5.632,100.9169,1.639,2.545,45.95,0,109.6,13.59,2.40,188.4
"2010-11-15 01:26:00",337433,6.57,238.1,4.288,0.886,8.05,100.9151,1.634,2.725,46.14,0,109.6,13.59,2.39,200.1
"2010-11-15 01:26:30",337434,6.733,236.2,4.541,0.608,8.22,100.9151,1.634,2.724,46.05,0,109.6,13.59,2.39,198.2
"2010-11-15 01:27:00",337435,5.987,234.1,4.416,1.053,6.85,100.9157,1.636,2.708,46.19,0,109.6,13.59,2.39,196.1
"2010-11-15 01:27:30",337436,5.899,230.9,5.939,1.232,5.196,100.916,1.637,2.527,46.09,0,109.6,13.59,2.39,192.9
"2010-11-15 01:28:00",337437,5.56,228.3,8.07,1.1,5.026,100.9166,1.638,2.586,46.12,0,109.6,13.59,2.40,190.3
"2010-11-15 01:28:30",337438,5.441,228.9,7.382,1.083,4.738,100.9166,1.638,2.645,46.14,0,109.6,13.59,2.40,190.9
"2010-11-15 01:29:00",337439,6.451,237.7,7.076,1.038,7.359,100.9151,1.634,2.75,45.96,0,109.6,13.59,2.39,199.7
"2010-11-15 01:29:30",337440,6.85,237.4,5.104,0.557,8.34,100.9146,1.633,2.788,46.27,0,109.6,13.59,2.39,199.4
"2010-11-15 01:30:00",337441,6.591,239.1,5.234,0.998,7.268,100.9163,1.637,2.781,46.31,0,109.6,13.59,2.40,201.1
"2010-11-15 01:30:30",337442,5.618,233,8.33,1.32,5.388,100.9163,1.637,2.603,46.11,0,109.6,13.59,2.40,195.0
"2010-11-15 01:31:00",337443,5.459,230.8,5.472,1.183,4.792,100.9171,1.639,2.615,46.1,0,109.6,13.59,2.40,192.8
"2010-11-15 01:31:30",337444,5.068,228.6,8.08,0.959,4.544,100.9169,1.639,2.597,45.96,0,109.6,13.59,2.40,190.6
"2010-11-15 01:32:00",337445,5.988,237.7,6.349,1.126,7.084,100.9157,1.636,2.701,46.04,0,109.6,13.59,2.39,199.7
"2010-11-15 01:32:30",337446,6.594,236.2,5.386,0.914,7.63,100.9157,1.636,2.771,46.03,0,109.6,13.59,2.39,198.2
"2010-11-15 01:33:00",337447,6.76,237.8,4.216,0.776,7.729,100.9149,1.634,2.812,46.08,0,109.6,13.59,2.39,199.8
"2010-11-15 01:33:30",337448,6.346,238.8,4.596,0.86,7.292,100.9157,1.636,2.788,45.87,0,109.6,13.59,2.39,200.8
"2010-11-15 01:34:00",337449,5.146,234.3,8.13,1.298,5.051,100.9166,1.638,2.659,45.84,0,109.6,13.59,2.40,196.3
"2010-11-15 01:34:30",337450,4.189,230.8,3.223,0.135,2.914,100.9169,1.639,2.524,45.62,0,109.6,13.62,2.40,192.8
"2010-11-15 01:35:00",337451,3.99,229.1,2.873,0.671,3.532,100.9169,1.639,2.594,45.57,0,109.6,13.59,2.40,191.1
"2010-11-15 01:35:30",337452,6.444,227.6,5.549,0.956,7.33,100.9151,1.634,2.69,45.26,0,109.6,13.59,2.39,189.6
"2010-11-15 01:36:00",337453,6.961,235.6,6.515,0.597,8.19,100.9163,1.637,2.802,45.17,0,109.6,13.59,2.40,197.6
"2010-11-15 01:36:30",337454,6.823,234.4,4.799,0.64,8.01,100.9137,1.631,2.771,45.34,0,109.6,13.59,2.39,196.4
"2010-11-15 01:37:00",337455,6.851,238.5,5.264,0.679,7.409,100.905,1.608,2.715,45.42,0,109.6,13.58,2.37,200.5
"2010-11-15 01:37:30",337456,4.199,225.9,3.857,0.125,3.297,100.9157,1.636,2.519,45.53,0,109.6,13.62,2.39,187.9
"2010-11-15 01:38:00",337457,5.541,233.4,5.057,1.372,5.259,100.9166,1.638,2.629,45.54,0,109.6,13.58,2.40,195.4
"2010-11-15 01:38:30",337458,5.469,231.7,7.107,1.144,5.213,100.9169,1.639,2.626,45.37,0,109.6,13.58,2.40,193.7
"2010-11-15 01:39:00",337459,6.312,240.9,5.057,0.874,7.259,100.9163,1.637,2.731,45.4,0,109.6,13.58,2.40,202.9
"2010-11-15 01:39:30",337460,6.468,244.3,5.731,0.946,7.453,100.9157,1.636,2.782,45.39,0,109.6,13.58,2.39,206.3
"2010-11-15 01:40:00",337461,6.526,244.9,6.244,0.985,7.19,100.9174,1.64,2.758,45.11,0,109.6,13.58,2.40,206.9
"2010-11-15 01:40:30",337462,6.155,246.3,6.378,1.122,6.733,100.916,1.637,2.741,44.9,0,109.6,13.58,2.39,208.3
"2010-11-15 01:41:00",337463,4.783,235.9,4.706,0.915,3.523,100.9166,1.638,2.528,44.7,0,109.6,13.58,2.40,197.9
"2010-11-15 01:41:30",337464,5.845,239,9.06,1.269,5.047,100.9169,1.639,2.572,44.65,0,109.6,13.58,2.40,201.0
"2010-11-15 01:42:00",337465,5.702,229.6,9.74,1.325,5.75,100.9049,1.608,2.681,44.33,0,109.6,13.59,2.37,191.6
"2010-11-15 01:42:30",337466,6.429,228.9,7.155,1.085,7.106,100.884,1.555,2.746,43.42,0,109.6,13.59,2.31,190.9
"2010-11-15 01:43:00",337467,6.688,230.6,5.823,0.9,7.259,100.871,1.522,2.713,43.24,0,109.6,13.59,2.28,192.6
"2010-11-15 01:43:30",337468,6.637,232,7.64,0.916,7.358,100.8503,1.469,2.718,43.82,0,109.6,13.59,2.23,194.0
"2010-11-15 01:44:00",337469,4.923,227.9,5.731,1.072,4.311,100.8483,1.464,2.501,43.53,0,109.6,13.59,2.22,189.9
"2010-11-15 01:44:30",337470,5.162,232.2,9.46,1.025,5.196,100.8492,1.466,2.553,45,0,109.6,13.59,2.22,194.2
"2010-11-15 01:45:00",337471,5.39,227,6.823,1.193,4.745,100.8489,1.465,2.402,44.13,0,109.6,13.59,2.22,189.0
"2010-11-15 01:45:30",337472,6.297,229.9,5.227,0.936,7.355,100.848,1.463,2.647,44.26,0,109.6,13.59,2.22,191.9
"2010-11-15 01:46:00",337473,6.098,236.1,7.9,1.074,7.385,100.8486,1.465,2.561,44.08,0,109.6,13.59,2.22,198.1
"2010-11-15 01:46:30",337474,6.327,232.9,5.572,0.899,7.598,100.8486,1.465,2.634,44.54,0,109.6,13.59,2.22,194.9
"2010-11-15 01:47:00",337475,6.065,234.6,7.221,0.899,7.186,100.8472,1.461,2.631,44.8,0,109.6,13.59,2.22,196.6
"2010-11-15 01:47:30",337476,5.395,230.2,7.039,1.29,5.292,100.8475,1.462,2.491,44.86,0,109.5,13.59,2.22,192.2
"2010-11-15 01:48:00",337477,4.927,226,8.62,1.29,4.235,100.848,1.463,2.378,44.66,0,109.6,13.59,2.22,188.0
"2010-11-15 01:48:30",337478,5.985,231,5.424,1.376,6.216,100.8503,1.469,2.511,44.9,0,109.6,13.59,2.23,193.0